Вернуться в каталог

QIANFAN-143

АктивенСвязьPO
NORAD 69089·PAYLOAD·🇨🇳 China

Запущен May 12, 2026 с Taiyuan Satellite Launch Center

Loading…

Ближайшие Пролёты (ближайшие 24 часа)

TLE

СвежийSource: Space-Track

Эпоха: Sep 14, 2026, 21:17 UTC

1 69089U 26104S   26257.88713098  .00000102  00000-0  13950-3 0  9995
2 69089  88.9914 332.2933 0001982 106.0656 254.0713 13.51026778 17282

Отслеживайте QIANFAN-143 в реальном времени с AllMySat

Download on the App Store